This demonstration page uses our WeatherBlox Daily Observations layout. Learn more.

Left ArrowRight Arrow

Hourly Observations for November 30, 2018

Temp ( °F °C ) Dew Point ( °F °C ) Humidity (%) Winds ( mph kmh ) Pressure ( in mb ) Visibility ( mi km ) Precip ( " mm )
12:17 am 00:17 Partly Cloudy with Mist and Fog 32 0 29 -1.7 88 88 Calm 29.97 1015 3 5 0.00 0.00
12:25 am 00:25 Mostly Clear with Mist and Fog 31 -0.6 29 -1.7 92 92 Calm 29.97 1015 3 4 0.00 0.00
12:52 am 00:52 Partly Cloudy with Mist and Fog 32 0 30 -1.1 92 92 Calm 29.93 1014 3 4 0.00 0.00
1:19 am 01:19 Cloudy with Mist and Fog 31 -0.6 29 -1.7 92 92 Calm 29.97 1015 1 2 0.00 0.00
1:52 am 01:52 Cloudy with Mist and Fog 32 0 30 -1.1 92 92 N 5 7 29.91 1013 2 2 0.00 0.00
2:52 am 02:52 Mostly Cloudy with Mist and Fog 30 -1.1 29 -1.7 96 96 N 5 7 29.94 1014 2 2 0.00 0.00
3:00 am 03:00 Mostly Cloudy with Mist and Fog 31 -0.6 29 -1.7 92 92 NNW 3 6 29.97 1015 2 2 0.00 0.00
3:03 am 03:03 Mostly Cloudy with Mist and Fog 31 -0.6 29 -1.7 92 92 N 5 7 29.97 1015 2 2 0.00 0.00
3:52 am 03:52 Mostly Cloudy with Mist and Fog 31 -0.6 29 -1.7 92 92 N 6 9 29.93 1014 2 2 0.00 0.00
4:29 am 04:29 Cloudy with Freezing Fog 31 -0.6 30 -1.1 96 96 N 6 9 29.97 1015 1 1 0.00 0.00
4:35 am 04:35 Mostly Cloudy with Freezing Fog 31 -0.6 30 -1.1 96 96 N 6 9 29.94 1014 0 0 0.00 0.00
4:52 am 04:52 Mostly Cloudy with Freezing Fog 31 -0.6 29 -1.7 92 92 NNW 6 9 29.93 1014 0 0 0.00 0.00
5:52 am 05:52 Mostly Cloudy with Fog 32 0 30 -1.1 92 92 Calm 29.93 1014 1 2 0.00 0.00
6:11 am 06:11 Mostly Cloudy with Freezing Fog 31 -0.6 29 -1.7 92 92 Calm 29.97 1015 1 1 0.00 0.00
6:27 am 06:27 Mostly Cloudy with Freezing Fog 31 -0.6 29 -1.7 92 92 SSW 3 6 30.00 1016 0 0 0.00 0.00
6:52 am 06:52 Mostly Cloudy with Freezing Fog 30 -1.1 28 -2.2 92 92 E 3 6 29.94 1014 1 2 0.00 0.00
7:32 am 07:32 Mostly Cloudy with Freezing Fog 30 -1.1 29 -1.7 96 96 Calm 30.00 1016 1 1 0.00 0.00
7:52 am 07:52 Mostly Cloudy with Mist and Fog 30 -1.1 28 -2.2 92 92 NE 3 6 29.95 1014 1 2 0.00 0.00
8:52 am 08:52 Mostly Cloudy with Mist and Fog 31 -0.6 29 -1.7 92 92 ESE 3 6 29.98 1015 2 3 0.00 0.00
9:48 am 09:48 Mostly Cloudy with Mist and Fog 34 1 30 -1 87 87 NNE 3 6 30.00 1016 2 3 0.00 0.00
9:52 am 09:52 Mostly Cloudy with Mist and Fog 33 0.6 30 -1.1 89 89 Calm 29.98 1015 2 3 0.00 0.00
9:55 am 09:55 Mostly Cloudy with Mist and Fog 33 0.6 31 -0.6 92 92 Calm 30.03 1017 3 5 0.00 0.00
10:03 am 10:03 Mostly Cloudy with Mist and Fog 33 0.6 31 -0.6 92 92 Calm 30.03 1017 3 4 0.00 0.00
10:52 am 10:52 Mostly Cloudy with Mist and Fog 34 1.1 30 -1.1 85 85 ESE 7 11 29.97 1015 3 4 0.00 0.00
11:34 am 11:34 Cloudy with Mist and Fog 35 1.7 31 -0.6 85 85 E 7 11 29.97 1015 3 4 0.00 0.00
11:52 am 11:52 Cloudy with Mist and Fog 35 1.7 31 -0.6 85 85 E 6 9 29.93 1014 3 4 0.00 0.00
12:52 pm 12:52 Cloudy with Mist and Fog 37 2.8 33 0.6 86 86 E 7 11 29.90 1013 3 4 0.00 0.00
1:26 pm 13:26 Cloudy with Mist and Fog 37 2.8 33 0.6 86 86 E 8 13 29.88 1012 4 6 0.00 0.00
1:52 pm 13:52 Cloudy with Mist and Fog 38 3.3 34 1.1 86 86 Calm 29.90 1013 4 6 0.00 0.00
2:52 pm 14:52 Cloudy with Haze 39 3.9 34 1.1 82 82 Calm 29.90 1013 5 8 0.00 0.00
3:52 pm 15:52 Cloudy with Haze 40 4.4 35 1.7 83 83 E 8 13 29.84 1011 5 8 0.00 0.00
4:52 pm 16:52 Cloudy 40 4.4 35 1.7 83 83 E 8 13 29.86 1011 7 11 0.00 0.00
5:52 pm 17:52 Cloudy 41 5 35 1.7 79 79 E 9 15 29.82 1010 7 11 0.00 0.00
6:52 pm 18:52 Cloudy with Light Rain 40 4.4 35 1.7 83 83 SE 6 9 29.81 1010 7 11 0.01 0.25
7:52 pm 19:52 Cloudy with Light Rain 39 3.9 35 1.7 86 86 E 7 11 29.79 1009 6 10 0.01 0.25
8:52 pm 20:52 Cloudy with Light Rain 39 3.9 35 1.7 86 86 Calm 29.77 1008 6 10 0.01 0.25
9:52 pm 21:52 Cloudy with Light Rain 39 3.9 34 1.1 82 82 E 3 6 29.73 1007 6 10 0.01 0.25
10:52 pm 22:52 Cloudy 38 3.3 33 0.6 83 83 ENE 10 17 29.71 1006 7 11 0.00 0.03
11:00 pm 23:00 Cloudy with Mist and Fog 38 3.3 33 0.6 83 83 ENE 8 13 29.71 1006 6 10 0.00 0.00
11:52 pm 23:52 Cloudy with Mist and Fog 38 3.3 33 0.6 83 83 E 21 33 29.65 1004 6 10 0.00 0.00

Powered by AerisWeather